Tracking 30516 objects as of 20-May-2025
HD Live streaming from Space Station
objects crossing your sky now

STARLINK-6153

Track STARLINK-6153 now!
10-day predictions
STARLINK-6153 is classified as:


NORAD ID: 56384
Int'l Code: 2023-061L
Perigee: 565.3 km
Apogee: 567.1 km
Inclination: 43.0 °
Period: 95.8 minutes
Semi major axis: 6937 km
RCS: Unknown
Launch date: May 4, 2023
Source: United States (US)
Launch site: AIR FORCE EASTERN TEST RANGE (AFETR)
Your satellite tracking list
Your tracking list is empty




NASA's NSSDC Master Catalog

Two Line Element Set (TLE):
1 56384U 23061L   25140.29925413  .00000140  00000-0  25464-4 0  9995
2 56384  43.0042 351.4478 0001268 269.5468  90.5229 15.02535302112625
Source of the keplerian elements: AFSPC